User: anonymous   Login
Location: Silent Lake
(44.9206°N, 78.0708°W)
Time: 03:34:47
(UTC-04:00)
Language:

Terra - Orbit

View from above orbital plane
View from above orbital plane
View from above satellite
View from above satellite

Ground track
Ground track

The orbit data is extracted from the following two-line orbital elements,

1 25994U 99068A   18172.78524944 -.00000055  00000-0 -22064-5 0  9994
2 25994  98.2040 247.5886 0001252  79.5988 280.5348 14.57108085984493
Epoch (UTC): 21 June 2018 18:50:45
Eccentricity: 0.0001252
inclination: 98.2040°
perigee height: 701 km
apogee height: 703 km
right ascension of ascending node: 247.5886°
argument of perigee: 79.5988°
revolutions per day: 14.57108085
mean anomaly at epoch: 280.5348°
orbit number at epoch: 98449

The dashed part of the orbit path shows where the satellite is in the earth's shadow,  

DLR